#timestamp,LO_Frequency,Hit,StdDev 
1702911615.5,286046999.1,N
1702911635.4,286047001.2,N
1702911655.2,286046997.0,N
1702911675.1,286046997.0,N
1702911676.0,286046997.0,N
1702911695.8,286046997.0,N
1702911715.6,286046999.5,N
1702911735.5,286046998.7,N
1702911755.3,286047001.1,N
1702911775.2,286047000.7,N
1702911795.9,286046998.8,N
1702911815.7,286046998.8,N
1702911835.6,286046996.6,N
1702911855.4,286046997.7,N
1702911875.2,286046998.0,N
1702911895.1,286046993.4,Y
1702911896.0,286046993.4,P
1702911915.8,286046996.1,N
1702911935.7,286046995.0,N
1702911955.5,286046995.5,N
1702911975.3,286046996.4,N
1702911995.2,286046995.5,Y
1702912015.0,286047000.3,P
1702912015.9,286047000.3,N
1702912035.8,286046999.9,N
1702912055.6,286047000.6,N
1702912075.4,286046998.4,N
1702912095.3,286047001.1,N
1702912115.1,286047000.7,N
1702912135.8,286046998.4,N
1702912155.7,286046998.4,N
1702912175.5,286046999.5,N
1702912195.4,286046999.1,N
1702912215.2,286046997.2,N
1702912235.0,286046999.0,N
1702912235.9,286046999.0,N
1702912255.8,286046998.9,N
1702912275.6,286046998.4,N
1702912295.4,286046998.1,N
1702912315.3,286046998.4,N
1702912335.1,286046998.4,N
1702912355.9,286046997.0,N
1702912375.7,286046996.9,N
1702912395.5,286046998.5,N
1702912415.4,286046996.9,N
1702912435.2,286046996.7,N
1702912455.1,286046996.6,N
1702912456.0,286046996.6,N
1702912475.8,286046999.1,N
1702912495.6,286046998.9,N
1702912515.5,286046998.3,N
1702912535.3,286046999.9,N
1702912555.1,286047000.1,N
1702912575.9,286047000.8,N
1702912595.7,286047000.6,N
1702912615.6,286046998.3,N
1702912635.4,286046999.2,N
1702912655.2,286046999.6,N
1702912675.1,286046997.3,N
1702912676.0,286046997.3,N
1702912695.8,286046997.6,N
1702912715.7,286046999.2,N
1702912735.5,286046999.1,N
1702912755.3,286046996.9,N
1702912775.2,286046996.8,N
1702912795.0,286046996.8,N
1702912795.9,286046996.8,N
1702912815.8,286046997.1,N
1702912835.6,286046997.6,N
1702912855.4,286046997.4,N
1702912875.3,286046995.2,Y
1702912895.1,286046996.9,P
1702912915.9,286046997.7,P
1702912935.7,286046997.0,P
1702912955.5,286046999.6,N
1702912975.4,286046998.3,N
1702912995.2,286046998.3,N
1702913015.0,286046999.4,N
1702913015.9,286046999.4,N
1702913035.8,286046999.4,N
1702913055.6,286046998.4,N
1702913075.5,286046999.5,N
1702913095.3,286046997.4,N
1702913115.1,286046996.7,Y
1702913135.9,286046998.4,P
1702913155.7,286046999.0,P
1702913175.5,286046998.1,P
1702913195.4,286046999.0,Y
1702913215.2,286046999.9,P
1702913235.1,286047002.4,P
1702913236.0,286047002.4,N
1702913255.8,286047002.2,N
1702913275.6,286047002.8,N
1702913295.5,286046999.9,N
1702913315.3,286047000.1,N
1702913335.1,286047000.3,N
1702913355.9,286047000.8,N
1702913375.7,286046998.1,N
1702913395.6,286047000.4,N
1702913415.4,286046998.2,N
1702913435.2,286046998.8,N
1702913455.1,286046996.5,N
1702913456.0,286046996.5,N
1702913475.8,286046999.5,N
1702913495.6,286046999.0,N
1702913515.5,286046996.9,N
1702913535.3,286046998.9,N
1702913555.2,286046999.1,N
1702913575.9,286046998.9,N
1702913595.7,286046999.4,N
1702913615.6,286046999.5,N
1702913635.4,286046997.8,N
1702913655.3,286046997.7,N
1702913675.1,286046997.5,N
1702913676.0,286046997.5,N
1702913695.8,286046995.3,N
1702913715.7,286046995.0,N
1702913735.5,286046995.2,N
1702913755.3,286046995.5,N
1702913775.2,286046996.4,N
1702913795.0,286046995.7,N
1702913795.9,286046995.7,N
1702913815.8,286046995.7,N
1702913835.6,286046996.3,N
1702913855.4,286046996.1,N
1702913875.3,286046996.3,N
1702913895.1,286046995.6,N
1702913915.8,286046997.6,N
1702913935.7,286046995.4,N
1702913955.5,286046995.1,Y
1702913975.4,286046998.8,P
1702913995.2,286046996.5,P
1702914015.0,286046996.6,P
1702914015.9,286046996.6,Y
1702914035.8,286047000.3,P
1702914055.6,286046999.7,N
1702914075.5,286046999.9,N
1702914095.3,286047002.4,N
1702914115.1,286047001.3,N
1702914135.9,286047002.2,N
1702914155.7,286047004.3,N
1702914175.5,286047003.9,N
1702914195.4,286047005.6,N
1702914215.2,286047003.7,N
1702914235.1,286047002.9,N
1702914236.0,286047002.9,N
1702914255.8,286047004.2,N
1702914275.6,286047001.8,N
1702914295.5,286047005.9,N
1702914315.3,286047005.6,N
1702914335.1,286047005.7,N
1702914355.9,286047005.5,N
1702914375.7,286047004.7,N
1702914395.6,286047005.9,N
1702914415.4,286047007.6,Y
1702914435.2,286047001.6,P
1702914455.1,286047003.9,P
1702914456.0,286047011.9,P
1702914475.8,286047004.2,N
1702914495.6,286047001.5,N
1702914515.5,286047003.2,N
1702914535.3,286047005.5,N
1702914555.2,286047006.0,N
1702914575.9,286047004.9,N
1702914595.7,286047004.5,N
1702914615.6,286047004.7,N
1702914635.4,286047007.4,N
1702914655.2,286047004.6,N
1702914675.1,286047005.4,N
1702914676.0,286047005.4,N
1702914695.8,286047004.5,N
1702914715.7,286047007.3,Y
1702914735.5,286047001.3,P
1702914755.3,286047003.7,N
1702914775.2,286047005.8,P
1702914795.0,286047005.2,Y
1702914795.9,286047005.2,P
1702914815.8,286047000.2,N
1702914835.6,286047000.0,N
1702914855.4,286047002.5,N
1702914875.3,286047002.0,N
1702914895.1,286047001.4,N
1702914915.9,286047001.5,N
1702914935.7,286047000.0,N
1702914955.5,286046999.8,N
1702914975.4,286047000.1,N
1702914995.2,286047002.5,N
1702915015.0,286047000.9,N
1702915015.9,286047000.9,N
1702915035.8,286047002.3,N
1702915055.6,286047002.1,N
1702915075.5,286047002.6,N
1702915095.3,286047002.0,N
1702915115.1,286047004.3,Y
1702915135.9,286047000.1,P
1702915155.7,286047002.0,N
1702915175.6,286047002.8,P
1702915195.4,286046998.3,N
